Time,TemperatureF,DewpointF,PressureIn,WindDirection,WindDirectionDegrees,WindSpeedMPH,WindSpeedGustMPH,Humidity,HourlyPrecipIn,Conditions,Clouds,dailyrainin,SoftwareType,DateUTC
2013-01-02 00:00:00,49.0,48.2,29.94,West,275,0.0,0.0,97,0.06,,---,0.00,VWS V14.00,2013-01-02 05:00:00,
2013-01-02 00:01:00,49.0,48.2,29.94,West,275,0.0,0.0,97,0.06,,---,0.00,VWS V14.00,2013-01-02 05:01:00,
2013-01-02 00:06:00,49.0,48.2,29.94,West,275,0.0,0.0,97,0.05,,---,0.00,VWS V14.00,2013-01-02 05:06:00,
2013-01-02 00:11:00,49.0,48.2,29.94,West,275,0.0,0.0,97,0.05,,---,0.01,VWS V14.00,2013-01-02 05:11:00,
2013-01-02 00:16:00,49.0,48.2,29.94,West,275,0.0,0.0,97,0.05,,---,0.02,VWS V14.00,2013-01-02 05:16:00,
2013-01-02 00:21:00,49.0,48.2,29.94,West,275,0.0,0.0,97,0.04,,---,0.02,VWS V14.00,2013-01-02 05:21:00,
2013-01-02 00:26:00,49.0,48.2,29.93,West,275,0.0,0.0,97,0.04,,---,0.02,VWS V14.00,2013-01-02 05:26:00,
2013-01-02 00:31:00,49.0,48.2,29.93,West,275,0.0,0.0,97,0.03,,---,0.02,VWS V14.00,2013-01-02 05:31:00,
2013-01-02 00:36:00,49.0,48.2,29.93,West,275,0.0,0.0,97,0.02,,---,0.02,VWS V14.00,2013-01-02 05:36:00,
2013-01-02 00:41:00,49.0,48.2,29.94,West,275,0.0,0.0,97,0.02,,---,0.02,VWS V14.00,2013-01-02 05:41:00,
2013-01-02 00:46:00,49.0,48.2,29.94,West,275,0.0,0.0,97,0.02,,---,0.02,VWS V14.00,2013-01-02 05:46:00,
2013-01-02 00:51:00,49.0,48.2,29.94,West,275,0.0,0.0,97,0.03,,---,0.03,VWS V14.00,2013-01-02 05:51:00,
2013-01-02 00:56:00,49.0,48.2,29.93,West,275,0.0,0.0,97,0.04,,---,0.04,VWS V14.00,2013-01-02 05:56:00,
2013-01-02 01:01:00,49.0,48.2,29.93,West,275,0.0,0.0,97,0.05,,---,0.05,VWS V14.00,2013-01-02 06:01:00,
2013-01-02 01:06:00,49.0,48.2,29.94,West,275,0.0,0.0,97,0.05,,---,0.05,VWS V14.00,2013-01-02 06:06:00,
2013-01-02 01:11:00,49.0,48.2,29.94,West,275,0.0,0.0,97,0.04,,---,0.05,VWS V14.00,2013-01-02 06:11:00,
2013-01-02 01:16:00,49.0,48.2,29.93,West,275,0.0,0.0,97,0.03,,---,0.05,VWS V14.00,2013-01-02 06:16:00,
2013-01-02 01:21:00,49.0,48.2,29.92,West,275,0.0,0.0,97,0.03,,---,0.05,VWS V14.00,2013-01-02 06:21:00,
2013-01-02 01:26:00,49.0,48.2,29.93,West,275,0.0,0.0,97,0.04,,---,0.06,VWS V14.00,2013-01-02 06:26:00,
2013-01-02 01:31:00,49.0,48.5,29.93,West,275,0.0,0.0,98,0.04,,---,0.06,VWS V14.00,2013-01-02 06:31:00,
2013-01-02 01:36:00,49.0,48.5,29.93,West,275,0.0,0.0,98,0.04,,---,0.06,VWS V14.00,2013-01-02 06:36:00,
2013-01-02 01:41:00,49.0,48.5,29.92,West,275,0.0,0.0,98,0.04,,---,0.06,VWS V14.00,2013-01-02 06:41:00,
2013-01-02 01:46:00,49.0,48.5,29.91,West,275,0.0,0.0,98,0.04,,---,0.06,VWS V14.00,2013-01-02 06:46:00,
2013-01-02 01:51:00,49.0,48.5,29.91,West,275,0.0,0.0,98,0.03,,---,0.06,VWS V14.00,2013-01-02 06:51:00,
2013-01-02 01:56:00,49.0,48.5,29.90,West,275,2.0,2.0,98,0.03,,---,0.07,VWS V14.00,2013-01-02 06:56:00,
2013-01-02 02:01:00,48.9,48.4,29.90,West,275,0.0,0.0,98,0.02,,---,0.07,VWS V14.00,2013-01-02 07:01:00,
2013-01-02 02:06:00,48.9,48.4,29.90,West,275,1.0,2.0,98,0.02,,---,0.07,VWS V14.00,2013-01-02 07:06:00,
2013-01-02 02:11:00,49.0,48.5,29.92,West,275,0.0,0.0,98,0.02,,---,0.07,VWS V14.00,2013-01-02 07:11:00,
2013-01-02 02:16:00,49.0,48.5,29.93,West,275,0.0,1.0,98,0.03,,---,0.08,VWS V14.00,2013-01-02 07:16:00,
2013-01-02 02:21:00,49.0,48.5,29.92,West,275,0.0,0.0,98,0.03,,---,0.08,VWS V14.00,2013-01-02 07:21:00,
2013-01-02 02:26:00,49.0,48.5,29.92,West,275,0.0,0.0,98,0.02,,---,0.08,VWS V14.00,2013-01-02 07:26:00,
2013-01-02 02:31:00,49.1,48.6,29.92,West,275,0.0,0.0,98,0.02,,---,0.08,VWS V14.00,2013-01-02 07:31:00,
2013-01-02 02:36:00,49.0,48.5,29.90,West,275,0.0,0.0,98,0.02,,---,0.08,VWS V14.00,2013-01-02 07:36:00,
2013-01-02 02:41:00,49.0,48.5,29.93,West,275,0.0,0.0,98,0.02,,---,0.08,VWS V14.00,2013-01-02 07:41:00,
2013-01-02 02:46:00,49.0,48.5,29.94,West,275,0.0,0.0,98,0.02,,---,0.08,VWS V14.00,2013-01-02 07:46:00,
2013-01-02 02:51:00,49.1,48.6,29.93,West,275,0.0,1.0,98,0.02,,---,0.08,VWS V14.00,2013-01-02 07:51:00,
2013-01-02 02:56:00,49.0,48.5,29.92,West,275,0.0,0.0,98,0.01,,---,0.08,VWS V14.00,2013-01-02 07:56:00,
2013-01-02 03:01:00,49.0,48.5,29.93,West,275,0.0,0.0,98,0.01,,---,0.08,VWS V14.00,2013-01-02 08:01:00,
2013-01-02 03:06:00,49.1,48.6,29.92,West,275,0.0,0.0,98,0.01,,---,0.08,VWS V14.00,2013-01-02 08:06:00,
2013-01-02 03:11:00,49.1,48.6,29.93,West,275,0.0,0.0,98,0.01,,---,0.08,VWS V14.00,2013-01-02 08:11:00,
2013-01-02 03:16:00,49.1,48.6,29.93,West,275,0.0,0.0,98,0.00,,---,0.08,VWS V14.00,2013-01-02 08:16:00,
2013-01-02 03:21:00,49.0,48.5,29.93,West,275,0.0,0.0,98,0.00,,---,0.08,VWS V14.00,2013-01-02 08:21:00,
2013-01-02 03:26:00,49.0,48.5,29.92,West,275,0.0,0.0,98,0.00,,---,0.08,VWS V14.00,2013-01-02 08:26:00,
2013-01-02 03:31:00,49.0,48.5,29.93,West,275,0.0,0.0,98,0.00,,---,0.08,VWS V14.00,2013-01-02 08:31:00,
2013-01-02 03:36:00,49.1,48.6,29.92,West,275,0.0,0.0,98,0.00,,---,0.08,VWS V14.00,2013-01-02 08:36:00,
2013-01-02 03:41:00,49.0,48.5,29.92,West,275,0.0,0.0,98,0.00,,---,0.08,VWS V14.00,2013-01-02 08:41:00,
2013-01-02 03:46:00,49.0,48.5,29.93,West,275,0.0,0.0,98,0.00,,---,0.08,VWS V14.00,2013-01-02 08:46:00,
2013-01-02 03:51:00,49.1,48.6,29.93,West,275,0.0,0.0,98,0.00,,---,0.08,VWS V14.00,2013-01-02 08:51:00,
2013-01-02 03:56:00,49.1,48.6,29.94,West,275,0.0,0.0,98,0.00,,---,0.08,VWS V14.00,2013-01-02 08:56:00,
2013-01-02 04:01:00,49.1,48.6,29.93,West,275,0.0,0.0,98,0.00,,---,0.08,VWS V14.00,2013-01-02 09:01:00,
2013-01-02 04:06:00,49.1,48.6,29.93,West,275,0.0,0.0,98,0.00,,---,0.08,VWS V14.00,2013-01-02 09:06:00,
2013-01-02 04:11:00,49.1,48.6,29.93,West,275,0.0,0.0,98,0.00,,---,0.08,VWS V14.00,2013-01-02 09:11:00,
2013-01-02 04:16:00,49.1,48.6,29.93,West,275,0.0,0.0,98,0.00,,---,0.08,VWS V14.00,2013-01-02 09:16:00,
2013-01-02 04:21:00,49.1,48.6,29.94,West,275,0.0,0.0,98,0.00,,---,0.08,VWS V14.00,2013-01-02 09:21:00,
2013-01-02 04:26:00,49.1,48.6,29.94,West,275,0.0,0.0,98,0.00,,---,0.08,VWS V14.00,2013-01-02 09:26:00,
2013-01-02 04:31:00,49.1,48.6,29.94,West,275,0.0,0.0,98,0.00,,---,0.08,VWS V14.00,2013-01-02 09:31:00,
2013-01-02 04:36:00,49.2,48.7,29.94,West,275,0.0,0.0,98,0.00,,---,0.08,VWS V14.00,2013-01-02 09:36:00,
2013-01-02 04:41:00,49.2,48.7,29.93,West,275,0.0,0.0,98,0.00,,---,0.08,VWS V14.00,2013-01-02 09:41:00,
2013-01-02 04:46:00,49.2,48.7,29.94,West,275,0.0,3.0,98,0.00,,---,0.08,VWS V14.00,2013-01-02 09:46:00,
2013-01-02 04:51:00,49.2,48.7,29.95,West,275,0.0,0.0,98,0.00,,---,0.08,VWS V14.00,2013-01-02 09:51:00,
2013-01-02 04:56:00,49.2,48.7,29.95,West,277,3.0,4.0,98,0.00,,---,0.08,VWS V14.00,2013-01-02 09:56:00,
2013-01-02 05:01:00,49.2,48.7,29.95,WNW,283,0.0,0.0,98,0.00,,---,0.08,VWS V14.00,2013-01-02 10:01:00,
2013-01-02 05:06:00,49.1,48.6,29.94,NNW,343,2.0,4.0,98,0.00,,---,0.08,VWS V14.00,2013-01-02 10:06:00,
2013-01-02 05:11:00,49.0,48.5,29.94,North,11,0.0,3.0,98,0.00,,---,0.08,VWS V14.00,2013-01-02 10:11:00,
2013-01-02 05:16:00,48.7,48.2,29.96,NNE,20,1.0,4.0,98,0.00,,---,0.08,VWS V14.00,2013-01-02 10:16:00,
2013-01-02 05:21:00,48.6,48.1,29.96,NNE,19,0.0,5.0,98,0.00,,---,0.08,VWS V14.00,2013-01-02 10:21:00,
2013-01-02 05:26:00,48.4,47.6,29.95,NNE,20,0.0,2.0,97,0.00,,---,0.08,VWS V14.00,2013-01-02 10:26:00,
2013-01-02 05:31:00,48.2,47.4,29.96,NNE,18,1.0,5.0,97,0.00,,---,0.08,VWS V14.00,2013-01-02 10:31:00,
2013-01-02 05:36:00,47.9,47.1,29.96,NNE,18,4.0,4.0,97,0.00,,---,0.08,VWS V14.00,2013-01-02 10:36:00,
2013-01-02 05:41:00,47.6,46.5,29.97,NE,44,5.0,6.0,96,0.00,,---,0.08,VWS V14.00,2013-01-02 10:41:00,
2013-01-02 05:46:00,47.3,46.2,29.97,NNE,28,2.0,4.0,96,0.00,,---,0.08,VWS V14.00,2013-01-02 10:46:00,
2013-01-02 05:51:00,47.1,45.7,29.97,North,5,0.0,1.0,95,0.00,,---,0.08,VWS V14.00,2013-01-02 10:51:00,
2013-01-02 05:56:00,46.9,45.5,29.96,NE,55,0.0,0.0,95,0.00,,---,0.08,VWS V14.00,2013-01-02 10:56:00,
2013-01-02 06:01:00,46.8,45.5,29.97,NE,54,0.0,0.0,95,0.00,,---,0.08,VWS V14.00,2013-01-02 11:01:00,
2013-01-02 06:06:00,46.7,45.3,29.96,NE,54,0.0,1.0,95,0.00,,---,0.08,VWS V14.00,2013-01-02 11:06:00,
2013-01-02 06:11:00,46.6,45.2,29.97,NNE,30,2.0,6.0,95,0.00,,---,0.08,VWS V14.00,2013-01-02 11:11:00,
2013-01-02 06:16:00,46.5,44.9,29.97,NW,326,5.0,6.0,94,0.00,,---,0.08,VWS V14.00,2013-01-02 11:16:00,
2013-01-02 06:21:00,46.4,44.8,29.97,NW,326,0.0,1.0,94,0.00,,---,0.08,VWS V14.00,2013-01-02 11:21:00,
2013-01-02 06:26:00,46.4,44.5,29.97,NNW,338,0.0,2.0,93,0.00,,---,0.08,VWS V14.00,2013-01-02 11:26:00,
2013-01-02 06:31:00,46.4,44.8,29.97,North,350,3.0,3.0,94,0.00,,---,0.08,VWS V14.00,2013-01-02 11:31:00,
2013-01-02 06:36:00,46.4,44.5,29.97,North,355,3.0,4.0,93,0.00,,---,0.08,VWS V14.00,2013-01-02 11:36:00,
2013-01-02 06:41:00,46.3,44.4,29.97,North,360,0.0,0.0,93,0.00,,---,0.08,VWS V14.00,2013-01-02 11:41:00,
2013-01-02 06:46:00,46.3,44.4,29.97,North,5,2.0,3.0,93,0.00,,---,0.08,VWS V14.00,2013-01-02 11:46:00,
2013-01-02 06:51:00,46.3,44.4,29.98,North,5,4.0,4.0,93,0.00,,---,0.08,VWS V14.00,2013-01-02 11:51:00,
2013-01-02 06:56:00,46.3,44.1,29.98,North,5,0.0,0.0,92,0.00,,---,0.08,VWS V14.00,2013-01-02 11:56:00,
2013-01-02 07:01:00,46.2,44.0,29.98,North,5,0.0,0.0,92,0.00,,---,0.08,VWS V14.00,2013-01-02 12:01:00,
2013-01-02 07:06:00,46.2,44.3,29.99,North,5,0.0,2.0,93,0.00,,---,0.08,VWS V14.00,2013-01-02 12:06:00,
2013-01-02 07:11:00,46.2,44.0,29.98,North,360,0.0,6.0,92,0.00,,---,0.08,VWS V14.00,2013-01-02 12:11:00,
2013-01-02 07:16:00,46.2,44.3,29.99,North,360,0.0,0.0,93,0.00,,---,0.08,VWS V14.00,2013-01-02 12:16:00,
2013-01-02 07:21:00,46.2,44.0,29.99,North,360,0.0,0.0,92,0.00,,---,0.08,VWS V14.00,2013-01-02 12:21:00,
2013-01-02 07:26:00,46.2,44.3,30.00,North,360,0.0,0.0,93,0.00,,---,0.08,VWS V14.00,2013-01-02 12:26:00,
2013-01-02 07:31:00,46.1,43.9,30.00,North,360,0.0,0.0,92,0.00,,---,0.08,VWS V14.00,2013-01-02 12:31:00,
2013-01-02 07:36:00,46.1,44.2,30.00,North,360,0.0,0.0,93,0.00,,---,0.08,VWS V14.00,2013-01-02 12:36:00,
2013-01-02 07:41:00,46.1,44.2,29.99,North,360,0.0,0.0,93,0.00,,---,0.08,VWS V14.00,2013-01-02 12:41:00,
2013-01-02 07:46:00,46.1,44.2,29.99,North,360,0.0,1.0,93,0.00,,---,0.08,VWS V14.00,2013-01-02 12:46:00,
2013-01-02 07:51:00,46.1,44.2,29.99,North,360,0.0,0.0,93,0.00,,---,0.08,VWS V14.00,2013-01-02 12:51:00,
2013-01-02 07:56:00,46.1,44.2,30.00,North,360,0.0,0.0,93,0.00,,---,0.08,VWS V14.00,2013-01-02 12:56:00,
2013-01-02 08:01:00,46.1,44.2,30.00,North,360,0.0,0.0,93,0.00,,---,0.08,VWS V14.00,2013-01-02 13:01:00,
2013-01-02 08:06:00,46.1,44.2,30.00,North,360,0.0,0.0,93,0.00,,---,0.08,VWS V14.00,2013-01-02 13:06:00,
2013-01-02 08:11:00,46.0,44.4,29.99,North,360,0.0,0.0,94,0.00,,---,0.08,VWS V14.00,2013-01-02 13:11:00,
2013-01-02 08:16:00,46.0,44.4,29.99,North,360,0.0,0.0,94,0.00,,---,0.08,VWS V14.00,2013-01-02 13:16:00,
2013-01-02 08:21:00,46.0,44.4,29.99,North,360,0.0,0.0,94,0.00,,---,0.08,VWS V14.00,2013-01-02 13:21:00,
2013-01-02 08:26:00,46.0,44.4,30.00,North,360,0.0,0.0,94,0.00,,---,0.08,VWS V14.00,2013-01-02 13:26:00,
2013-01-02 08:31:00,46.1,44.5,30.01,North,360,0.0,0.0,94,0.00,,---,0.08,VWS V14.00,2013-01-02 13:31:00,
2013-01-02 08:36:00,46.1,44.5,30.01,North,360,0.0,0.0,94,0.00,,---,0.08,VWS V14.00,2013-01-02 13:36:00,
2013-01-02 08:41:00,46.3,45.0,30.02,North,360,0.0,0.0,95,0.00,,---,0.08,VWS V14.00,2013-01-02 13:41:00,
2013-01-02 08:46:00,46.5,45.2,30.01,North,360,0.0,0.0,95,0.00,,---,0.08,VWS V14.00,2013-01-02 13:46:00,
2013-01-02 08:51:00,46.6,45.2,30.03,North,360,0.0,1.0,95,0.00,,---,0.08,VWS V14.00,2013-01-02 13:51:00,
2013-01-02 08:56:00,46.7,45.3,30.03,North,360,0.0,0.0,95,0.00,,---,0.08,VWS V14.00,2013-01-02 13:56:00,
2013-01-02 09:01:00,46.9,45.5,30.03,North,360,0.0,2.0,95,0.00,,---,0.08,VWS V14.00,2013-01-02 14:01:00,
2013-01-02 09:06:00,47.1,45.5,30.03,North,360,0.0,1.0,94,0.00,,---,0.08,VWS V14.00,2013-01-02 14:06:00,
2013-01-02 09:11:00,47.2,45.6,30.03,North,360,0.0,0.0,94,0.00,,---,0.08,VWS V14.00,2013-01-02 14:11:00,
2013-01-02 09:16:00,47.3,45.7,30.03,North,360,0.0,0.0,94,0.00,,---,0.08,VWS V14.00,2013-01-02 14:16:00,
2013-01-02 09:21:00,47.6,46.0,30.04,North,360,0.0,0.0,94,0.00,,---,0.08,VWS V14.00,2013-01-02 14:21:00,
2013-01-02 09:26:00,47.8,46.2,30.05,North,360,0.0,0.0,94,0.00,,---,0.08,VWS V14.00,2013-01-02 14:26:00,
2013-01-02 09:31:00,48.1,46.5,30.05,North,360,0.0,0.0,94,0.00,,---,0.08,VWS V14.00,2013-01-02 14:31:00,
2013-01-02 09:36:00,48.2,46.0,30.05,North,360,1.0,1.0,92,0.00,,---,0.08,VWS V14.00,2013-01-02 14:36:00,
2013-01-02 09:41:00,48.3,45.2,30.04,North,360,0.0,0.0,89,0.00,,---,0.08,VWS V14.00,2013-01-02 14:41:00,
2013-01-02 09:46:00,48.5,45.4,30.05,North,360,1.0,3.0,89,0.00,,---,0.08,VWS V14.00,2013-01-02 14:46:00,
2013-01-02 09:51:00,48.8,45.4,30.05,North,360,3.0,3.0,88,0.00,,---,0.08,VWS V14.00,2013-01-02 14:51:00,
2013-01-02 09:56:00,49.1,46.0,30.05,North,360,0.0,1.0,89,0.00,,---,0.08,VWS V14.00,2013-01-02 14:56:00,
2013-01-02 10:01:00,49.2,44.9,30.05,North,360,0.0,0.0,85,0.00,,---,0.08,VWS V14.00,2013-01-02 15:01:00,
2013-01-02 10:06:00,49.4,45.4,30.06,North,360,0.0,0.0,86,0.00,,---,0.08,VWS V14.00,2013-01-02 15:06:00,
2013-01-02 10:11:00,49.6,45.9,30.07,North,360,0.0,1.0,87,0.00,,---,0.08,VWS V14.00,2013-01-02 15:11:00,
2013-01-02 10:16:00,49.8,46.4,30.07,North,360,0.0,0.0,88,0.00,,---,0.08,VWS V14.00,2013-01-02 15:16:00,
2013-01-02 10:21:00,50.1,46.4,30.06,North,360,0.0,0.0,87,0.00,,---,0.08,VWS V14.00,2013-01-02 15:21:00,
2013-01-02 10:26:00,50.2,45.9,30.06,North,360,0.0,0.0,85,0.00,,---,0.08,VWS V14.00,2013-01-02 15:26:00,
2013-01-02 10:31:00,50.4,45.8,30.06,North,360,1.0,3.0,84,0.00,,---,0.08,VWS V14.00,2013-01-02 15:31:00,
2013-01-02 10:36:00,50.5,45.5,30.06,North,5,0.0,2.0,83,0.00,,---,0.08,VWS V14.00,2013-01-02 15:36:00,
2013-01-02 10:41:00,50.8,45.5,30.07,North,5,0.0,2.0,82,0.00,,---,0.08,VWS V14.00,2013-01-02 15:41:00,
2013-01-02 10:46:00,51.0,45.7,30.06,North,5,0.0,1.0,82,0.00,,---,0.08,VWS V14.00,2013-01-02 15:46:00,
2013-01-02 10:51:00,51.2,45.2,30.06,North,9,1.0,3.0,80,0.00,,---,0.08,VWS V14.00,2013-01-02 15:51:00,
2013-01-02 10:56:00,51.2,45.6,30.06,North,9,1.0,1.0,81,0.00,,---,0.08,VWS V14.00,2013-01-02 15:56:00,
2013-01-02 11:01:00,51.4,45.8,30.06,North,9,0.0,1.0,81,0.00,,---,0.08,VWS V14.00,2013-01-02 16:01:00,
2013-01-02 11:06:00,51.5,46.5,30.06,NNE,12,0.0,0.0,83,0.00,,---,0.08,VWS V14.00,2013-01-02 16:06:00,
2013-01-02 11:11:00,51.4,45.1,30.05,NNE,12,1.0,1.0,79,0.00,,---,0.08,VWS V14.00,2013-01-02 16:11:00,
2013-01-02 11:16:00,51.4,45.1,30.06,NNE,12,0.0,0.0,79,0.00,,---,0.08,VWS V14.00,2013-01-02 16:16:00,
2013-01-02 11:21:00,51.4,45.8,30.07,NNE,12,1.0,1.0,81,0.00,,---,0.08,VWS V14.00,2013-01-02 16:21:00,
2013-01-02 11:26:00,51.4,45.1,30.07,North,5,1.0,3.0,79,0.00,,---,0.08,VWS V14.00,2013-01-02 16:26:00,
2013-01-02 11:31:00,51.3,45.3,30.07,North,5,0.0,3.0,80,0.00,,---,0.08,VWS V14.00,2013-01-02 16:31:00,
2013-01-02 11:36:00,51.3,44.3,30.06,North,5,0.0,0.0,77,0.00,,---,0.08,VWS V14.00,2013-01-02 16:36:00,
2013-01-02 11:41:00,51.4,44.8,30.05,North,5,0.0,0.0,78,0.00,,---,0.08,VWS V14.00,2013-01-02 16:41:00,
2013-01-02 11:46:00,51.6,45.3,30.05,North,5,0.0,0.0,79,0.00,,---,0.08,VWS V14.00,2013-01-02 16:46:00,
2013-01-02 11:51:00,51.7,45.4,30.06,North,5,0.0,1.0,79,0.00,,---,0.08,VWS V14.00,2013-01-02 16:51:00,
2013-01-02 11:56:00,51.9,45.3,30.06,North,5,0.0,0.0,78,0.00,,---,0.08,VWS V14.00,2013-01-02 16:56:00,
2013-01-02 12:01:00,51.9,44.6,30.05,NNE,22,2.0,3.0,76,0.00,,---,0.08,VWS V14.00,2013-01-02 17:01:00,
2013-01-02 12:06:00,51.9,45.3,30.05,NE,55,4.0,5.0,78,0.00,,---,0.08,VWS V14.00,2013-01-02 17:06:00,
2013-01-02 12:11:00,51.8,44.8,30.05,NE,55,0.0,0.0,77,0.00,,---,0.08,VWS V14.00,2013-01-02 17:11:00,
2013-01-02 12:16:00,51.9,45.3,30.05,NE,56,2.0,3.0,78,0.00,,---,0.08,VWS V14.00,2013-01-02 17:16:00,
2013-01-02 12:21:00,51.9,44.6,30.04,NE,56,2.0,2.0,76,0.00,,---,0.08,VWS V14.00,2013-01-02 17:21:00,
2013-01-02 12:26:00,51.9,44.9,30.05,NE,56,0.0,2.0,77,0.00,,---,0.08,VWS V14.00,2013-01-02 17:26:00,
2013-01-02 12:31:00,52.1,45.1,30.04,ENE,59,1.0,3.0,77,0.00,,---,0.08,VWS V14.00,2013-01-02 17:31:00,
2013-01-02 12:36:00,52.1,44.1,30.04,ENE,59,0.0,0.0,74,0.00,,---,0.08,VWS V14.00,2013-01-02 17:36:00,
2013-01-02 12:41:00,52.1,44.8,30.03,ENE,61,0.0,0.0,76,0.00,,---,0.08,VWS V14.00,2013-01-02 17:41:00,
2013-01-02 12:46:00,52.1,44.4,30.03,ENE,65,0.0,0.0,75,0.00,,---,0.08,VWS V14.00,2013-01-02 17:46:00,
2013-01-02 12:51:00,52.2,44.2,30.03,ENE,65,1.0,3.0,74,0.00,,---,0.08,VWS V14.00,2013-01-02 17:51:00,
2013-01-02 12:56:00,52.2,43.5,30.04,ENE,65,2.0,4.0,72,0.00,,---,0.08,VWS V14.00,2013-01-02 17:56:00,
2013-01-02 13:01:00,52.2,43.5,30.04,ENE,65,0.0,5.0,72,0.00,,---,0.08,VWS V14.00,2013-01-02 18:01:00,
2013-01-02 13:06:00,52.3,43.5,30.04,ENE,65,3.0,3.0,72,0.00,,---,0.08,VWS V14.00,2013-01-02 18:06:00,
2013-01-02 13:11:00,52.3,42.8,30.04,ENE,65,0.0,1.0,70,0.00,,---,0.08,VWS V14.00,2013-01-02 18:11:00,
2013-01-02 13:16:00,52.2,43.1,30.03,ENE,65,0.0,2.0,71,0.00,,---,0.08,VWS V14.00,2013-01-02 18:16:00,
2013-01-02 13:21:00,52.2,43.8,30.03,ENE,65,0.0,0.0,73,0.00,,---,0.08,VWS V14.00,2013-01-02 18:21:00,
2013-01-02 13:26:00,52.2,43.5,30.03,ENE,65,0.0,2.0,72,0.00,,---,0.08,VWS V14.00,2013-01-02 18:26:00,
2013-01-02 13:31:00,52.1,43.4,30.03,ENE,65,0.0,0.0,72,0.00,,---,0.08,VWS V14.00,2013-01-02 18:31:00,
2013-01-02 13:36:00,52.1,43.7,30.03,ENE,65,0.0,0.0,73,0.00,,---,0.08,VWS V14.00,2013-01-02 18:36:00,
2013-01-02 13:41:00,52.1,43.7,30.03,ENE,65,0.0,0.0,73,0.00,,---,0.08,VWS V14.00,2013-01-02 18:41:00,
2013-01-02 13:46:00,52.1,43.0,30.02,ENE,65,0.0,1.0,71,0.00,,---,0.08,VWS V14.00,2013-01-02 18:46:00,
2013-01-02 13:51:00,52.2,43.5,30.03,ENE,65,0.0,1.0,72,0.00,,---,0.08,VWS V14.00,2013-01-02 18:51:00,
2013-01-02 13:56:00,52.2,42.7,30.03,ENE,65,0.0,1.0,70,0.00,,---,0.08,VWS V14.00,2013-01-02 18:56:00,
2013-01-02 14:01:00,52.3,42.8,30.03,ENE,65,0.0,1.0,70,0.00,,---,0.08,VWS V14.00,2013-01-02 19:01:00,
2013-01-02 14:06:00,52.3,42.8,30.03,ENE,65,1.0,1.0,70,0.00,,---,0.08,VWS V14.00,2013-01-02 19:06:00,
2013-01-02 14:11:00,52.3,42.5,30.03,ENE,65,0.0,2.0,69,0.00,,---,0.08,VWS V14.00,2013-01-02 19:11:00,
2013-01-02 14:16:00,52.3,42.5,30.03,ENE,65,0.0,0.0,69,0.00,,---,0.08,VWS V14.00,2013-01-02 19:16:00,
2013-01-02 14:21:00,52.4,42.2,30.03,ENE,65,0.0,0.0,68,0.00,,---,0.08,VWS V14.00,2013-01-02 19:21:00,
2013-01-02 14:26:00,52.4,41.8,30.03,ENE,65,0.0,0.0,67,0.00,,---,0.08,VWS V14.00,2013-01-02 19:26:00,
2013-01-02 14:31:00,52.5,42.3,30.04,ENE,65,0.0,0.0,68,0.00,,---,0.08,VWS V14.00,2013-01-02 19:31:00,
2013-01-02 14:36:00,52.4,42.2,30.03,ENE,65,0.0,0.0,68,0.00,,---,0.08,VWS V14.00,2013-01-02 19:36:00,
2013-01-02 14:41:00,52.4,42.5,30.03,ENE,65,0.0,0.0,69,0.00,,---,0.08,VWS V14.00,2013-01-02 19:41:00,
2013-01-02 14:46:00,52.4,42.9,30.02,ENE,65,0.0,0.0,70,0.00,,---,0.08,VWS V14.00,2013-01-02 19:46:00,
2013-01-02 14:51:00,52.4,42.2,30.03,ENE,65,0.0,0.0,68,0.00,,---,0.08,VWS V14.00,2013-01-02 19:51:00,
2013-01-02 14:56:00,52.4,43.3,30.03,ENE,65,0.0,0.0,71,0.00,,---,0.08,VWS V14.00,2013-01-02 19:56:00,
2013-01-02 15:01:00,52.5,43.8,30.02,ENE,65,0.0,0.0,72,0.00,,---,0.08,VWS V14.00,2013-01-02 20:01:00,
2013-01-02 15:06:00,52.5,43.0,30.02,ENE,65,0.0,2.0,70,0.00,,---,0.08,VWS V14.00,2013-01-02 20:06:00,
2013-01-02 15:11:00,52.6,43.5,30.02,ENE,65,0.0,0.0,71,0.00,,---,0.08,VWS V14.00,2013-01-02 20:11:00,
2013-01-02 15:16:00,52.6,43.1,30.03,ENE,65,0.0,1.0,70,0.00,,---,0.08,VWS V14.00,2013-01-02 20:16:00,
2013-01-02 15:21:00,52.6,43.5,30.03,ENE,65,0.0,0.0,71,0.00,,---,0.08,VWS V14.00,2013-01-02 20:21:00,
2013-01-02 15:26:00,52.7,43.2,30.03,ENE,65,0.0,0.0,70,0.00,,---,0.08,VWS V14.00,2013-01-02 20:26:00,
2013-01-02 15:31:00,52.6,43.1,30.04,ENE,65,0.0,0.0,70,0.00,,---,0.08,VWS V14.00,2013-01-02 20:31:00,
2013-01-02 15:36:00,52.6,43.5,30.04,ENE,65,0.0,0.0,71,0.00,,---,0.08,VWS V14.00,2013-01-02 20:36:00,
2013-01-02 15:41:00,52.6,43.5,30.04,ENE,65,0.0,0.0,71,0.00,,---,0.08,VWS V14.00,2013-01-02 20:41:00,
2013-01-02 15:46:00,52.6,43.1,30.05,ENE,65,0.0,0.0,70,0.00,,---,0.08,VWS V14.00,2013-01-02 20:46:00,
2013-01-02 15:51:00,52.7,43.9,30.05,ENE,65,0.0,1.0,72,0.00,,---,0.08,VWS V14.00,2013-01-02 20:51:00,
2013-01-02 15:56:00,52.6,44.2,30.04,ENE,65,0.0,0.0,73,0.00,,---,0.08,VWS V14.00,2013-01-02 20:56:00,
2013-01-02 16:01:00,52.6,43.5,30.03,ENE,65,0.0,0.0,71,0.00,,---,0.08,VWS V14.00,2013-01-02 21:01:00,
2013-01-02 16:06:00,52.4,44.0,30.02,ENE,65,2.0,2.0,73,0.00,,---,0.08,VWS V14.00,2013-01-02 21:06:00,
2013-01-02 16:11:00,52.4,43.3,30.03,ENE,65,0.0,0.0,71,0.00,,---,0.08,VWS V14.00,2013-01-02 21:11:00,
2013-01-02 16:16:00,52.3,42.8,30.04,ENE,65,0.0,0.0,70,0.00,,---,0.08,VWS V14.00,2013-01-02 21:16:00,
2013-01-02 16:21:00,52.3,43.2,30.04,ENE,65,0.0,0.0,71,0.00,,---,0.08,VWS V14.00,2013-01-02 21:21:00,
2013-01-02 16:26:00,52.2,43.1,30.04,ENE,65,0.0,0.0,71,0.00,,---,0.08,VWS V14.00,2013-01-02 21:26:00,
2013-01-02 16:31:00,52.2,43.5,30.04,ENE,65,0.0,0.0,72,0.00,,---,0.08,VWS V14.00,2013-01-02 21:31:00,
2013-01-02 16:36:00,52.1,43.7,30.05,ENE,65,0.0,0.0,73,0.00,,---,0.08,VWS V14.00,2013-01-02 21:36:00,
2013-01-02 16:41:00,52.1,43.4,30.05,ENE,65,0.0,0.0,72,0.00,,---,0.08,VWS V14.00,2013-01-02 21:41:00,
2013-01-02 16:46:00,52.1,44.1,30.05,ENE,65,0.0,0.0,74,0.00,,---,0.08,VWS V14.00,2013-01-02 21:46:00,
2013-01-02 16:51:00,52.0,44.0,30.05,ENE,65,0.0,0.0,74,0.00,,---,0.08,VWS V14.00,2013-01-02 21:51:00,
2013-01-02 16:56:00,51.9,43.9,30.05,ENE,65,0.0,0.0,74,0.00,,---,0.08,VWS V14.00,2013-01-02 21:56:00,
2013-01-02 17:01:00,51.9,43.9,30.05,ENE,65,0.0,0.0,74,0.00,,---,0.08,VWS V14.00,2013-01-02 22:01:00,
2013-01-02 17:06:00,51.7,44.0,30.05,ENE,65,0.0,0.0,75,0.00,,---,0.08,VWS V14.00,2013-01-02 22:06:00,
2013-01-02 17:11:00,51.7,44.4,30.05,ENE,65,0.0,0.0,76,0.00,,---,0.08,VWS V14.00,2013-01-02 22:11:00,
2013-01-02 17:16:00,51.5,43.8,30.05,ENE,65,0.0,0.0,75,0.00,,---,0.08,VWS V14.00,2013-01-02 22:16:00,
2013-01-02 17:21:00,51.4,44.1,30.06,ENE,65,0.0,0.0,76,0.00,,---,0.08,VWS V14.00,2013-01-02 22:21:00,
2013-01-02 17:26:00,51.3,44.3,30.05,ENE,65,0.0,0.0,77,0.00,,---,0.08,VWS V14.00,2013-01-02 22:26:00,
2013-01-02 17:31:00,51.2,43.9,30.05,ENE,65,0.0,0.0,76,0.00,,---,0.08,VWS V14.00,2013-01-02 22:31:00,
2013-01-02 17:36:00,51.0,44.4,30.05,ENE,65,0.0,0.0,78,0.00,,---,0.08,VWS V14.00,2013-01-02 22:36:00,
2013-01-02 17:41:00,50.9,44.3,30.06,ENE,65,0.0,0.0,78,0.00,,---,0.08,VWS V14.00,2013-01-02 22:41:00,
2013-01-02 17:46:00,50.8,44.2,30.06,ENE,65,0.0,0.0,78,0.00,,---,0.08,VWS V14.00,2013-01-02 22:46:00,
2013-01-02 17:51:00,50.7,44.4,30.06,ENE,65,0.0,0.0,79,0.00,,---,0.08,VWS V14.00,2013-01-02 22:51:00,
2013-01-02 17:56:00,50.5,44.2,30.07,ENE,65,0.0,0.0,79,0.00,,---,0.08,VWS V14.00,2013-01-02 22:56:00,
2013-01-02 18:01:00,50.4,44.8,30.07,ENE,65,0.0,2.0,81,0.00,,---,0.08,VWS V14.00,2013-01-02 23:01:00,
2013-01-02 18:06:00,50.4,45.1,30.07,ENE,65,0.0,0.0,82,0.00,,---,0.08,VWS V14.00,2013-01-02 23:06:00,
2013-01-02 18:11:00,50.4,45.8,30.08,ENE,65,4.0,7.0,84,0.00,,---,0.08,VWS V14.00,2013-01-02 23:11:00,
2013-01-02 18:16:00,50.3,46.6,30.07,ESE,107,4.0,4.0,87,0.00,,---,0.08,VWS V14.00,2013-01-02 23:16:00,
2013-01-02 18:21:00,50.1,46.4,30.08,ESE,107,0.0,5.0,87,0.00,,---,0.08,VWS V14.00,2013-01-02 23:21:00,
2013-01-02 18:26:00,49.9,46.5,30.07,ESE,107,0.0,1.0,88,0.00,,---,0.08,VWS V14.00,2013-01-02 23:26:00,
2013-01-02 18:31:00,49.7,46.3,30.07,ESE,107,0.0,4.0,88,0.00,,---,0.08,VWS V14.00,2013-01-02 23:31:00,
2013-01-02 18:36:00,49.5,46.4,30.07,ESE,107,1.0,7.0,89,0.00,,---,0.08,VWS V14.00,2013-01-02 23:36:00,
2013-01-02 18:41:00,49.3,46.2,30.07,ESE,107,2.0,5.0,89,0.00,,---,0.08,VWS V14.00,2013-01-02 23:41:00,
2013-01-02 18:46:00,49.2,46.1,30.08,ESE,107,0.0,6.0,89,0.00,,---,0.08,VWS V14.00,2013-01-02 23:46:00,
2013-01-02 18:51:00,49.0,46.2,30.07,ESE,107,0.0,1.0,90,0.00,,---,0.08,VWS V14.00,2013-01-02 23:51:00,
2013-01-02 18:56:00,48.9,46.1,30.08,ESE,107,0.0,0.0,90,0.00,,---,0.08,VWS V14.00,2013-01-02 23:56:00,
2013-01-02 19:01:00,48.8,46.0,30.08,ESE,107,0.0,4.0,90,0.00,,---,0.08,VWS V14.00,2013-01-03 00:01:00,
2013-01-02 19:06:00,48.7,45.9,30.07,ESE,109,5.0,7.0,90,0.00,,---,0.08,VWS V14.00,2013-01-03 00:06:00,
2013-01-02 19:11:00,48.5,45.7,30.09,East,101,2.0,5.0,90,0.00,,---,0.08,VWS V14.00,2013-01-03 00:11:00,
2013-01-02 19:16:00,48.5,45.7,30.10,East,101,2.0,2.0,90,0.00,,---,0.08,VWS V14.00,2013-01-03 00:16:00,
2013-01-02 19:21:00,48.3,45.5,30.09,East,98,1.0,5.0,90,0.00,,---,0.08,VWS V14.00,2013-01-03 00:21:00,
2013-01-02 19:26:00,48.2,45.4,30.09,ESE,103,4.0,7.0,90,0.00,,---,0.08,VWS V14.00,2013-01-03 00:26:00,
2013-01-02 19:31:00,48.1,45.3,30.09,SE,134,8.0,8.0,90,0.00,,---,0.08,VWS V14.00,2013-01-03 00:31:00,
2013-01-02 19:36:00,47.9,45.1,30.09,SE,129,0.0,6.0,90,0.00,,---,0.08,VWS V14.00,2013-01-03 00:36:00,
2013-01-02 19:41:00,47.8,45.3,30.10,East,81,0.0,3.0,91,0.00,,---,0.08,VWS V14.00,2013-01-03 00:41:00,
2013-01-02 19:46:00,47.7,45.2,30.11,ESE,116,2.0,7.0,91,0.00,,---,0.08,VWS V14.00,2013-01-03 00:46:00,
2013-01-02 19:51:00,47.7,45.2,30.10,SE,145,6.0,10.0,91,0.00,,---,0.08,VWS V14.00,2013-01-03 00:51:00,
2013-01-02 19:56:00,47.6,44.8,30.10,SE,146,4.0,4.0,90,0.00,,---,0.08,VWS V14.00,2013-01-03 00:56:00,
2013-01-02 20:01:00,47.6,44.8,30.11,SE,144,5.0,9.0,90,0.00,,---,0.08,VWS V14.00,2013-01-03 01:01:00,
2013-01-02 20:06:00,47.6,45.1,30.11,SE,144,1.0,2.0,91,0.00,,---,0.08,VWS V14.00,2013-01-03 01:06:00,
2013-01-02 20:11:00,47.5,45.0,30.10,SE,144,4.0,4.0,91,0.00,,---,0.08,VWS V14.00,2013-01-03 01:11:00,
2013-01-02 20:16:00,47.5,45.0,30.10,SE,138,0.0,0.0,91,0.00,,---,0.08,VWS V14.00,2013-01-03 01:16:00,
2013-01-02 20:21:00,47.4,44.6,30.11,SE,138,0.0,0.0,90,0.00,,---,0.08,VWS V14.00,2013-01-03 01:21:00,
2013-01-02 20:26:00,47.4,44.9,30.11,SE,138,4.0,4.0,91,0.00,,---,0.08,VWS V14.00,2013-01-03 01:26:00,
2013-01-02 20:31:00,47.3,44.5,30.11,SE,128,0.0,0.0,90,0.00,,---,0.08,VWS V14.00,2013-01-03 01:31:00,
2013-01-02 20:36:00,47.2,44.4,30.11,SE,128,0.0,0.0,90,0.00,,---,0.08,VWS V14.00,2013-01-03 01:36:00,
2013-01-02 20:41:00,47.2,44.4,30.12,SE,128,0.0,0.0,90,0.00,,---,0.08,VWS V14.00,2013-01-03 01:41:00,
2013-01-02 20:46:00,47.2,44.4,30.11,SE,128,0.0,1.0,90,0.00,,---,0.08,VWS V14.00,2013-01-03 01:46:00,
2013-01-02 20:51:00,47.2,44.4,30.11,SE,128,0.0,0.0,90,0.00,,---,0.08,VWS V14.00,2013-01-03 01:51:00,
2013-01-02 20:56:00,47.2,44.7,30.12,SE,128,0.0,0.0,91,0.00,,---,0.08,VWS V14.00,2013-01-03 01:56:00,
2013-01-02 21:01:00,47.2,44.7,30.11,SE,128,0.0,0.0,91,0.00,,---,0.08,VWS V14.00,2013-01-03 02:01:00,
2013-01-02 21:06:00,47.2,44.7,30.12,SE,128,0.0,0.0,91,0.00,,---,0.08,VWS V14.00,2013-01-03 02:06:00,
2013-01-02 21:11:00,47.1,44.3,30.13,SE,128,0.0,1.0,90,0.00,,---,0.08,VWS V14.00,2013-01-03 02:11:00,
2013-01-02 21:16:00,47.1,44.3,30.13,SE,128,0.0,0.0,90,0.00,,---,0.08,VWS V14.00,2013-01-03 02:16:00,
2013-01-02 21:21:00,47.0,44.2,30.14,SE,128,1.0,5.0,90,0.00,,---,0.08,VWS V14.00,2013-01-03 02:21:00,
2013-01-02 21:26:00,47.0,44.2,30.14,SE,128,0.0,0.0,90,0.00,,---,0.08,VWS V14.00,2013-01-03 02:26:00,
2013-01-02 21:31:00,47.0,44.2,30.13,SE,128,2.0,4.0,90,0.00,,---,0.08,VWS V14.00,2013-01-03 02:31:00,
2013-01-02 21:36:00,47.0,44.2,30.14,SE,128,0.0,1.0,90,0.00,,---,0.08,VWS V14.00,2013-01-03 02:36:00,
2013-01-02 21:41:00,46.9,44.1,30.14,SE,128,0.0,0.0,90,0.00,,---,0.08,VWS V14.00,2013-01-03 02:41:00,
2013-01-02 21:46:00,46.9,44.1,30.14,SE,128,2.0,2.0,90,0.00,,---,0.08,VWS V14.00,2013-01-03 02:46:00,
2013-01-02 21:51:00,46.9,44.1,30.14,SE,128,0.0,0.0,90,0.00,,---,0.08,VWS V14.00,2013-01-03 02:51:00,
2013-01-02 21:56:00,46.8,44.0,30.13,SE,128,2.0,2.0,90,0.00,,---,0.08,VWS V14.00,2013-01-03 02:56:00,
2013-01-02 22:01:00,46.8,44.0,30.13,SE,128,0.0,6.0,90,0.00,,---,0.08,VWS V14.00,2013-01-03 03:01:00,
2013-01-02 22:06:00,46.8,44.0,30.14,North,360,2.0,4.0,90,0.00,,---,0.08,VWS V14.00,2013-01-03 03:06:00,
2013-01-02 22:11:00,46.8,44.0,30.13,SE,128,0.0,5.0,90,0.00,,---,0.08,VWS V14.00,2013-01-03 03:11:00,
2013-01-02 22:16:00,46.7,43.9,30.14,SE,128,2.0,8.0,90,0.00,,---,0.08,VWS V14.00,2013-01-03 03:16:00,
2013-01-02 22:21:00,46.7,43.9,30.14,SE,128,1.0,4.0,90,0.00,,---,0.08,VWS V14.00,2013-01-03 03:21:00,
2013-01-02 22:26:00,46.6,43.8,30.14,SE,128,2.0,2.0,90,0.00,,---,0.08,VWS V14.00,2013-01-03 03:26:00,
2013-01-02 22:31:00,46.6,43.8,30.14,SE,128,0.0,1.0,90,0.00,,---,0.08,VWS V14.00,2013-01-03 03:31:00,
2013-01-02 22:37:00,46.5,43.7,30.14,SE,132,4.0,6.0,90,0.00,,---,0.08,VWS V14.00,2013-01-03 03:37:00,
2013-01-02 22:42:00,46.5,43.7,30.14,SE,132,0.0,1.0,90,0.00,,---,0.08,VWS V14.00,2013-01-03 03:42:00,
2013-01-02 22:47:00,46.5,44.0,30.13,SE,132,0.0,0.0,91,0.00,,---,0.08,VWS V14.00,2013-01-03 03:47:00,
2013-01-02 22:52:00,46.4,43.9,30.14,ESE,118,0.0,0.0,91,0.00,,---,0.08,VWS V14.00,2013-01-03 03:52:00,
2013-01-02 22:57:00,46.3,43.8,30.13,ESE,118,1.0,1.0,91,0.00,,---,0.08,VWS V14.00,2013-01-03 03:57:00,
2013-01-02 23:02:00,46.2,44.0,30.13,ESE,117,0.0,0.0,92,0.00,,---,0.08,VWS V14.00,2013-01-03 04:02:00,
2013-01-02 23:07:00,46.1,43.9,30.13,ESE,117,0.0,1.0,92,0.00,,---,0.08,VWS V14.00,2013-01-03 04:07:00,
2013-01-02 23:12:00,46.1,43.9,30.14,ESE,117,2.0,5.0,92,0.00,,---,0.08,VWS V14.00,2013-01-03 04:12:00,
2013-01-02 23:17:00,46.0,43.8,30.14,East,90,0.0,1.0,92,0.00,,---,0.08,VWS V14.00,2013-01-03 04:17:00,
2013-01-02 23:22:00,45.9,43.7,30.13,East,97,0.0,0.0,92,0.00,,---,0.08,VWS V14.00,2013-01-03 04:22:00,
2013-01-02 23:27:00,45.9,43.7,30.13,East,97,4.0,4.0,92,0.00,,---,0.08,VWS V14.00,2013-01-03 04:27:00,
2013-01-02 23:32:00,45.8,43.9,30.12,East,97,0.0,0.0,93,0.00,,---,0.08,VWS V14.00,2013-01-03 04:32:00,
2013-01-02 23:37:00,45.8,43.9,30.12,East,97,0.0,0.0,93,0.00,,---,0.08,VWS V14.00,2013-01-03 04:37:00,
2013-01-02 23:42:00,45.8,43.9,30.12,East,97,0.0,0.0,93,0.00,,---,0.08,VWS V14.00,2013-01-03 04:42:00,
2013-01-02 23:47:00,45.7,43.8,30.12,East,97,4.0,4.0,93,0.00,,---,0.08,VWS V14.00,2013-01-03 04:47:00,
2013-01-02 23:52:00,45.7,43.8,30.11,East,97,2.0,4.0,93,0.00,,---,0.08,VWS V14.00,2013-01-03 04:52:00,
2013-01-02 23:57:00,45.7,43.8,30.11,East,97,0.0,1.0,93,0.00,,---,0.08,VWS V14.00,2013-01-03 04:57:00,